Location: Gleizolles
(44.4833°N, 6.7667°E)
Time: 08:46:19
(UTC+00:00)

XW-2C - Visible Passes

Search period start: 26 November 2022 00:00
Search period end: 06 December 2022 00:00
Orbit: 493 x 512 km, 97.5° (Epoch: 25 November)

Date Brightness Start Highest point End Pass type
(mag) Time Alt. Az. Time Alt. Az. Time Alt. Az.
26 Nov ? 05:33:48 10° NNE 05:37:25 58° E 05:41:00 10° S visible
26 Nov ? 17:48:27 10° SW 17:51:04 18° W 17:53:40 10° NW visible
27 Nov ? 05:15:15 10° NNE 05:18:36 33° E 05:21:54 10° SSE visible
27 Nov ? 17:28:55 10° SSW 17:32:11 29° W 17:35:27 10° NW visible
28 Nov ? 04:56:57 10° NE 04:59:43 20° E 05:02:28 10° SE visible
28 Nov ? 17:09:44 10° S 17:13:21 49° W 17:16:57 10° NNW visible
29 Nov ? 04:39:13 10° ENE 04:40:47 12° E 04:42:21 10° ESE visible
29 Nov ? 06:11:20 10° N 06:14:50 46° WNW 06:18:20 10° SSW visible
29 Nov ? 16:50:51 10° SSE 16:54:32 87° WSW 16:58:15 10° NNW visible
30 Nov ? 05:52:27 10° N 05:56:06 81° WNW 05:59:44 10° SSW visible
30 Nov ? 16:32:10 10° SSE 16:35:47 54° ENE 16:39:24 10° N visible
30 Nov ? 18:08:50 10° WSW 18:09:54 11° W 18:10:58 10° WNW visible
01 Dec ? 05:33:41 10° NNE 05:37:17 57° E 05:40:53 10° S visible
01 Dec ? 17:48:20 10° SW 17:50:56 18° W 17:53:32 10° NW visible
02 Dec ? 05:15:06 10° NNE 05:18:26 33° E 05:21:44 10° SSE visible
02 Dec ? 17:28:45 10° SSW 17:32:00 29° W 17:35:16 10° NW visible
03 Dec ? 04:56:45 10° NE 04:59:31 20° E 05:02:15 10° SE visible
03 Dec ? 17:09:32 10° S 17:13:07 50° W 17:16:43 10° NNW visible
04 Dec ? 04:38:59 10° ENE 04:40:31 12° E 04:42:03 10° ESE visible
04 Dec ? 06:11:04 10° N 06:14:35 46° WNW 06:18:05 10° SSW visible
04 Dec ? 16:50:36 10° SSE 16:54:17 88° W 16:57:58 10° NNW visible
05 Dec ? 05:52:08 10° N 05:55:47 82° WNW 05:59:26 10° SSW visible
05 Dec ? 16:31:53 10° SSE 16:35:28 53° ENE 16:39:04 10° N visible
05 Dec ? 18:08:28 10° WSW 18:09:34 11° W 18:10:41 10° WNW visible
